This is the latest recevied weather packets stored in our database for station/object K7PMV-13. If no packets are shown the sender has not sent any weather packets the latest 1 day(s).
| Time | Temp. | Humidity | Pressure | Rain* | Wind** | Luminosity | Snow |
|---|---|---|---|---|---|---|---|
| 1778023012 | 25.56° C | 26% | 1005.8 hPa | 0 mm | 2.24 m/s, 360° | 531 W/m² | - |
| 1778022697 | 25.56° C | 27% | 1005.9 hPa | 0 mm | 2.24 m/s, 360° | 552 W/m² | - |
| 1778022383 | 25.56° C | 27% | 1006 hPa | 0 mm | 4.02 m/s, 360° | 568 W/m² | - |
| 1778022052 | 26.11° C | 27% | 1005.9 hPa | 0 mm | 5.36 m/s, 360° | 585 W/m² | - |
| 1778021738 | 26.11° C | 26% | 1005.9 hPa | 0 mm | 2.68 m/s, 360° | 599 W/m² | - |
| 1778021424 | 26.11° C | 26% | 1005.9 hPa | 0 mm | 3.58 m/s, 360° | 617 W/m² | - |
| 1778021107 | 26.11° C | 27% | 1006 hPa | 0 mm | 0.89 m/s, 360° | 635 W/m² | - |
| 1778020792 | 26.11° C | 27% | 1006.2 hPa | 0 mm | 1.34 m/s, 360° | 650 W/m² | - |
| 1778020467 | 26.11° C | 26% | 1006.2 hPa | 0 mm | 1.79 m/s, 360° | 666 W/m² | - |
| 1778020153 | 26.11° C | 27% | 1006.2 hPa | 0 mm | 3.58 m/s, 360° | 686 W/m² | - |
| 1778019829 | 26.11° C | 28% | 1006.3 hPa | 0 mm | 1.79 m/s, 360° | 715 W/m² | - |
| 1778019515 | 26.11° C | 28% | 1006.4 hPa | 0 mm | 1.79 m/s, 360° | 742 W/m² | - |
| 1778019200 | 26.67° C | 27% | 1006.6 hPa | 0 mm | 4.47 m/s, 360° | 171 W/m² | - |
| 1778018881 | 26.67° C | 28% | 1006.5 hPa | 0 mm | 2.24 m/s, 360° | 751 W/m² | - |
| 1778018565 | 26.67° C | 27% | 1006.7 hPa | 0 mm | 2.24 m/s, 360° | 761 W/m² | - |
| 1778018251 | 26.67° C | 27% | 1006.6 hPa | 0 mm | 2.24 m/s, 360° | 795 W/m² | - |
| 1778017936 | 26.11° C | 28% | 1006.7 hPa | 0 mm | 1.79 m/s, 360° | 803 W/m² | - |
| 1778017617 | 26.67° C | 27% | 1006.7 hPa | 0 mm | 1.79 m/s, 360° | 807 W/m² | - |
| 1778017302 | 26.11° C | 28% | 1006.7 hPa | 0 mm | 1.34 m/s, 360° | 710 W/m² | - |
| 1778016987 | 26.11° C | 28% | 1006.8 hPa | 0 mm | 1.79 m/s, 360° | 838 W/m² | - |
| 1778016672 | 26.67° C | 27% | 1006.8 hPa | 0 mm | 4.92 m/s, 360° | 870 W/m² | - |
| 1778016358 | 26.11° C | 27% | 1006.9 hPa | 0 mm | 2.68 m/s, 360° | 900 W/m² | - |
| 1778016043 | 26.67° C | 27% | 1006.9 hPa | 0 mm | 2.24 m/s, 360° | 877 W/m² | - |
| 1778015368 | 26.11° C | 29% | 1006.9 hPa | 0 mm | 1.79 m/s, 360° | 891 W/m² | - |
| 1778015044 | 26.11° C | 28% | 1007.1 hPa | 0 mm | 4.47 m/s, 360° | 893 W/m² | - |
* Rain latest hour (hover to see other rain measurements)
** Current wind speed in m/s (hover to see current wind gust speed)